Preview of NWS' New Version of Forecast
This preview is not operational and should not be used for support decisions.

Regional Weather Roundup (RWR)

Issued by National Weather Service (NWS)

                            
000
ASUS44 KMEG 180710
RWRTN 
TENNESSEE HOURLY STATE WEATHER ROUNDUP
NATIONAL WEATHER SERVICE MEMPHIS TN
100 AM CST MON FEB 18 2019

TNZ002-004-019-021-049-052-054-088>092-180800-
WEST TENNESSEE
  
CITY           SKY/WX    TMP DP  RH WIND       PRES   REMARKS
MEMPHIS INTL   CLOUDY    36  28  73 NW12G18   30.16R WCI  28          
NWS MEMPHIS      N/A     35 N/A N/A MISG        N/A                   
JACKSON        FAIR      36  29  75 NW10      30.13R WCI  28          
DYERSBURG      FAIR      34  28  79 NW9       30.16R WCI  27          
COVINGTON      CLEAR     36  27  69 N14G22    30.15R WCI  27          
UNION CITY     MOCLDY    34  25  69 NW10      30.14R WCI  26          
PARIS          CLOUDY    36  27  69 VRB7G14   30.11R WCI  30          
SELMER         CLOUDY    36  32  87 VRB6      30.10R WCI  31          
SAVANNAH       CLOUDY    37  34  87 NW6G12    30.11R WCI  33          
$$

TNZ008-025-027-028-033-062-065-066-180800-
NORTH MIDDLE TENNESSEE
  
CITY           SKY/WX    TMP DP  RH WIND       PRES   REMARKS
NASHVILLE      CLOUDY    42  35  76 NW8       30.05R                  
DICKSON        CLOUDY    37  34  87 NW6       30.05R WCI  33          
CLARKSVILLE    MOCLDY    35  26  69 NW10      30.08R WCI  27          
LEBANON        CLOUDY    41  37  87 NW5       30.03R                  
SMYRNA         CLOUDY    40  38  93 NW8       30.05R WCI  34          
MURFREESBORO   CLOUDY    41  39  93 NW5       30.02R                  
COOKEVILLE     CLOUDY    41  39  93 CALM      30.00R FOG              
LIVINGSTON     CLOUDY    39  37  93 NW5       29.98R                  
GALLATIN       CLOUDY    41  37  87 VRB6G12   30.07R                  
CROSSVILLE     CLOUDY    40  38  93 NW8       29.96S WCI  34          
ROCKWOOD       CLOUDY    43  43 100 CALM      29.96R                  
$$

TNZ061-075-076-078-094-096-097-180800-
SOUTH MIDDLE TENNESSEE
  
CITY           SKY/WX    TMP DP  RH WIND       PRES   REMARKS
LAWRENCEBURG   CLOUDY    39  37  93 NW7       30.05R WCI  34          
LEWISBURG      CLOUDY    41  39  93 CALM      30.05R                  
FAYETTEVILLE   CLOUDY    41  41 100 NW8       30.02R                  
TULLAHOMA      CLOUDY    41  39  93 NW10      30.01R                  
WINCHESTER     CLOUDY    43  41  93 NW6G12    30.03R                  
MCMINNVILLE    CLOUDY    41  39  93 N13       29.99S FOG              
COLUMBIA       CLOUDY    41  41 100 W5        30.05R                  
SHELBYVILLE    CLOUDY    41  39  93 NW7       30.03R                  
$$

TNZ017-018-042-046-047-180800-
NORTHEAST TENNESSEE
  
CITY           SKY/WX    TMP DP  RH WIND       PRES   REMARKS
TRI CITIES     LGT RAIN  49  49 100 SW8       29.88S                  
ELIZABETHTON   CLOUDY    48  48 100 CALM      29.89S FOG              
GREENEVILLE    CLOUDY    50  48  93 SW6       29.88F                  
$$

TNZ012-013-036-069-073-074-180800-
CENTRAL EAST TENNESSEE
  
CITY           SKY/WX    TMP DP  RH WIND       PRES   REMARKS
KNOXVILLE      LGT RAIN  50  48  93 W16       29.94R                  
OAK RIDGE      CLOUDY    48  47  96 VRB3      29.96R                  
DOWNTOWN KNOXV CLOUDY    52  50  93 W9        29.93R                  
GATLINBURG     CLOUDY    52  48  87 W7        29.90F                  
MORRISTOWN     CLOUDY    50  50 100 W12       29.88S                  
JACKSBORO      CLOUDY    45  41  87 W9G16     29.99R                  
$$

TNZ083-085-099-180800-
SOUTHEAST TENNESSEE
  
CITY           SKY/WX    TMP DP  RH WIND       PRES   REMARKS
CHATTANOOGA    LGT RAIN  48  44  86 W5        30.00R                  
DAYTON         CLOUDY    48  45  87 NW6       29.94F                  
$$

SKY/WX REPORTED AS FAIR MEANS FEW OR NO CLOUDS BELOW
12 THOUSAND FEET.